Weather History for Russellville, AR

Change the Weather History Date:

Sunday, February 23, 2014

  Actual Average (KHOT) Record (KHOT)
Temperature  
Mean Temperature 47 °F -  
Max Temperature 57 °F 58 °F 83 °F (1982)
Min Temperature 37 °F 36 °F 13 °F (1989)
Degree Days  
Heating Degree Days 18    
Moisture  
Dew Point 33 °F    
Average Humidity 63    
Maximum Humidity 82    
Minimum Humidity 41    
Precipitation  
Precipitation 0.00 in - - ()
Sea Level Pressure  
Sea Level Pressure 30.04 in    
Wind  
Wind Speed 3 mph (NNE)    
Max Wind Speed 10 mph    
Max Gust Speed -    
Visibility 10 miles    
Events      
Averages and records for this station are not official NWS values.
T = Trace of Precipitation, MM = Missing Value Source: NWS Daily Summary

Daily Weather History Graph

Daily Weather History Graph

Search for Another Location

Airport:

Trip Planner

Search our weather history database for the weather conditions in past years. The results will help you decide how hot, cold, wet, or windy it might be!

Date:

Astronomy

Feb. 23, 2014 Rise Set
Actual Time 6:49 AM CST 6:02 PM CST
Civil Twilight 6:23 AM CST 6:28 PM CST
Nautical Twilight 5:54 AM CST 6:57 PM CST
Astronomical Twilight 5:24 AM CST 7:27 PM CST
Moon 1:41 AM CST (2/23) 12:12 PM CST (2/23)
Length of Visible Light 12h 04m
Length of Day
11h 13m
Last Quarter, 38% of the Moon is Illuminated
Feb 23
Last Quarter
Mar 1
New
Mar 8
First Quarter
Mar 16
Full
Mar 23
Last Quarter

Hourly Weather History & Observations

Time (CST) Temp. Windchill Dew Point Humidity Pressure Visibility Wind Dir Wind Speed Gust Speed Precip Events Conditions
12:53 AM 44.1 °F - 33.1 °F 65% 29.90 in 10.0 mi Calm Calm - N/A   Clear
1:53 AM 42.1 °F - 33.1 °F 70% 29.89 in 10.0 mi Calm Calm - N/A   Clear
2:53 AM 39.9 °F - 33.1 °F 77% 29.88 in 10.0 mi Calm Calm - N/A   Clear
3:53 AM 39.9 °F - 33.1 °F 77% 29.88 in 10.0 mi Calm Calm - N/A   Clear
4:53 AM 39.0 °F - 33.1 °F 79% 29.90 in 10.0 mi Calm Calm - N/A   Clear
5:53 AM 37.9 °F - 32.0 °F 79% 29.91 in 10.0 mi Calm Calm - N/A   Clear
6:53 AM 37.0 °F - 32.0 °F 82% 29.94 in 10.0 mi Calm Calm - N/A   Clear
7:53 AM 43.0 °F - 36.0 °F 76% 29.96 in 10.0 mi Calm Calm - N/A   Partly Cloudy
8:53 AM 53.1 °F - 34.0 °F 48% 29.99 in 10.0 mi NNE 9.2 mph - N/A   Scattered Clouds
9:53 AM 55.9 °F - 34.0 °F 44% 29.99 in 10.0 mi NE 10.4 mph - N/A   Scattered Clouds
10:53 AM 57.9 °F - 34.0 °F 41% 30.00 in 10.0 mi NNW 8.1 mph - N/A   Overcast
11:53 AM 55.0 °F - 34.0 °F 45% 30.02 in 10.0 mi North 9.2 mph - N/A   Overcast
12:53 PM 53.1 °F - 34.0 °F 48% 30.04 in 10.0 mi NNE 10.4 mph - N/A   Overcast
1:53 PM 52.0 °F - 34.0 °F 50% 30.05 in 10.0 mi NNE 10.4 mph - N/A   Overcast
2:53 PM 52.0 °F - 35.1 °F 53% 30.07 in 10.0 mi NNE 10.4 mph - N/A   Overcast
3:53 PM 50.0 °F - 35.1 °F 57% 30.10 in 10.0 mi North 9.2 mph - N/A   Overcast
4:53 PM 48.9 °F - 34.0 °F 56% 30.12 in 10.0 mi North 8.1 mph - N/A   Overcast
5:53 PM 48.9 °F - 34.0 °F 56% 30.14 in 10.0 mi NNE 6.9 mph - N/A   Overcast
6:53 PM 46.9 °F - 34.0 °F 61% 30.16 in 10.0 mi Calm Calm - N/A   Overcast
7:53 PM 39.0 °F - 33.1 °F 79% 30.17 in 10.0 mi Calm Calm - N/A   Clear
8:53 PM 37.0 °F - 32.0 °F 82% 30.18 in 10.0 mi Calm Calm - N/A   Clear
9:53 PM 39.0 °F - 32.0 °F 76% 30.19 in 10.0 mi Calm Calm - N/A   Clear
10:53 PM 42.1 °F 40.2 °F 30.9 °F 65% 30.20 in 10.0 mi East 3.5 mph - N/A   Clear
11:53 PM 42.1 °F 40.2 °F 28.0 °F 58% 30.21 in 10.0 mi East 3.5 mph - N/A   Clear